sat.trackr.live / text

‹ back to catalog

VIZARD-METEO (RS38S)

NORAD 57189 · 2023-091Z

PAYLOAD ACTIVE UNKNOWN

§ Identity

Operator
Country
CIS
Launch date
2023-06-27
Launch site
VOSTO
Launch vehicle
Mass (kg)
RCS (m²)

Purposes: comms

External: N2YO · Heavens-Above · Gunter

§ Orbital elements

Epoch: 2026-09-19T21:55:37.682112Z

Period
93.58 min
Inclination
97.5001°
Eccentricity
0.0008020
Mean motion
15.38756101 rev/d
Perigee alt
444.3 km
Apogee alt
455.3 km
Semi-major
6,827.9 km
B*
3.2863e-4
RAAN
334.4410°
Arg perigee
93.6408°
Mean anomaly
266.5754°
Rev number
17,924

§ Raw data

VIZARD-METEO (RS38S)1 57189U 23091Z   26262.91363058  .00012523  00000+0  32863-3 0  99952 57189  97.5001 334.4410 0008020  93.6408 266.5754 15.38756101179248

JSON: /api/v1/satellites/57189 · /tle

For live sub-satellite position, see the globe view (requires WebGL).

§ Visibility from observer

Set your observer location to see the next 7 days of passes ≥ 10°. The values pass through the URL so the page stays shareable.

No JS? Fill the form by hand. The geolocation button needs JavaScript.

§ Radio — SatNOGS DB

ModeDescriptionDownlinkUplink
GMSK USP Mode U - GMSK 2k4 (USP FEC) TLM 437.825 MHz
SSTV SSTV - Robot 72 437.825 MHz

2 transmitters · refreshed weekly from db.satnogs.org